Liberty, KS

5:26 AM CST on December 10, 2016 (GMT -0600)
Coffeyville Municipal

Weather History for KCFV - October, 2013

Change the Weather History Date:

Monday, October 7, 2013

  Actual Average Record
Temperature  
Mean Temperature 58 °F -  
Max Temperature 75 °F 72 °F 87 °F (2011)
Min Temperature 42 °F 48 °F 33 °F (2000)
Degree Days  
Heating Degree Days 8    
Growing Degree Days 8 (Base 50)    
Moisture  
Dew Point 42 °F    
Average Humidity 57    
Maximum Humidity 89    
Minimum Humidity 28    
Precipitation  
Precipitation 0.00 in - - ()
Sea Level Pressure  
Sea Level Pressure 30.12 in    
Wind  
Wind Speed 3 mph (WNW)    
Max Wind Speed 7 mph    
Max Gust Speed -    
Visibility 8 miles    
Events      
Averages and records for this station are not official NWS values.
T = Trace of Precipitation, MM = Missing Value Source: NWS Daily Summary

Daily Weather History Graph

Daily Weather History Graph

Search for Another Location

Airport or City:

Trip Planner

Search our weather history database for the weather conditions in past years. The results will help you decide how hot, cold, wet, or windy it might be!

Date:

Astronomy

Oct. 07, 2013 Rise Set
Actual Time 7:23 AM CDT 6:56 PM CDT
Civil Twilight 6:57 AM CDT 7:22 PM CDT
Nautical Twilight 6:26 AM CDT 7:52 PM CDT
Astronomical Twilight 5:56 AM CDT 8:22 PM CDT
Moon 10:09 AM CDT (10/7) 8:46 PM CDT (10/7)
Length of Visible Light 12h 25m
Length of Day
11h 33m
Waxing Crescent, 9% of the Moon is Illuminated
Oct 7
Waxing Crescent
Oct 11
First Quarter
Oct 18
Full
Oct 26
Last Quarter
Nov 3
New

Hourly Weather History & Observations

Time (CDT) Temp. Dew Point Humidity Pressure Visibility Wind Dir Wind Speed Gust Speed Precip Events Conditions
12:52 AM 51.1 °F 39.9 °F 66% 30.04 in 10.0 mi NW 4.6 mph - N/A   Clear
1:52 AM 50.0 °F 39.0 °F 66% 30.05 in 10.0 mi NNW 5.8 mph - N/A   Clear
2:52 AM 48.0 °F 39.0 °F 71% 30.06 in 10.0 mi NNW 5.8 mph - N/A   Clear
3:52 AM 46.9 °F 37.9 °F 71% 30.07 in 10.0 mi WNW 4.6 mph - N/A   Clear
4:52 AM 46.9 °F 37.9 °F 71% 30.10 in 10.0 mi Calm Calm - N/A   Clear
5:52 AM 43.0 °F 39.9 °F 89% 30.12 in 10.0 mi Calm Calm - N/A   Clear
6:52 AM 42.1 °F 37.9 °F 85% 30.13 in 10.0 mi Calm Calm - N/A   Clear
7:52 AM 42.1 °F 39.0 °F 89% 30.15 in 10.0 mi Calm Calm - N/A   Clear
8:52 AM 50.0 °F 39.9 °F 68% 30.17 in 10.0 mi NW 4.6 mph - N/A   Clear
9:52 AM 55.9 °F 42.1 °F 60% 30.18 in 10.0 mi North 3.5 mph - N/A   Clear
10:52 AM 61.0 °F 42.1 °F 50% 30.18 in 10.0 mi NW 5.8 mph - N/A   Clear
11:52 AM 64.9 °F 39.9 °F 40% 30.18 in 10.0 mi NW 5.8 mph - N/A   Clear
12:52 PM 69.1 °F 41.0 °F 36% 30.15 in 10.0 mi NNE 6.9 mph - N/A   Clear
1:52 PM 72.0 °F 37.0 °F 28% 30.13 in 10.0 mi NNE 4.6 mph - N/A   Clear
2:52 PM 73.0 °F 39.9 °F 30% 30.12 in 10.0 mi Calm Calm - N/A   Clear
3:52 PM 73.9 °F 41.0 °F 30% 30.11 in 8.0 mi SSW 5.8 mph - N/A   Clear
4:43 PM 73.4 °F 42.8 °F 33% 30.10 in 2.0 mi South 4.6 mph - N/A   Haze
4:52 PM 73.9 °F 39.9 °F 29% 30.10 in 3.0 mi SW 3.5 mph - N/A   Haze
4:59 PM 73.4 °F 41.0 °F 31% 30.10 in 2.5 mi SW 3.5 mph - N/A   Haze
5:14 PM 73.4 °F 42.8 °F 33% 30.10 in 5.0 mi Calm Calm - N/A   Haze
5:52 PM 72.0 °F 44.1 °F 37% 30.09 in 3.0 mi SSW 3.5 mph - N/A   Haze
6:52 PM 69.1 °F 45.0 °F 42% 30.10 in 6.0 mi SSW 3.5 mph - N/A   Haze
7:52 PM 59.0 °F 50.0 °F 72% 30.11 in 7.0 mi Calm Calm - N/A   Clear
8:52 PM 57.9 °F 48.9 °F 72% 30.12 in 8.0 mi Calm Calm - N/A   Clear
9:52 PM 55.9 °F 48.9 °F 77% 30.13 in 8.0 mi SSE 3.5 mph - N/A   Clear
10:52 PM 54.0 °F 48.0 °F 80% 30.12 in 8.0 mi Calm Calm - N/A   Clear
11:52 PM 52.0 °F 46.9 °F 83% 30.12 in 9.0 mi Calm Calm - N/A   Clear